Regional Weather Roundup
Issued by NWS Sterling, VA

Home | Current Version | Previous Version | Graphics & Text | Print | Product List | Glossary On
Versions: 1 2 3 4 5 6 7 8 9 10 11 12 13 14 15 16 17 18 19 20 21 22 23 24 25 26 27
000
ASUS41 KLWX 250511
RWRLWX

REGIONAL WEATHER ROUNDUP
NATIONAL WEATHER SERVICE BALTIMORE MD/WASHINGTON DC
100 AM EDT SUN SEP 25 2016

Note: "FAIR" indicates few or no clouds below 12,000 feet
with no significant weather and/or obstructions to visibility.
 TC=TEMPERATURE CELSIUS

 * =Non NWS site. Station does not report precipitation (e.g. rain,
    snow, etc.), thunder, or fog.

DCZ001-MDZ009-015-VAZ040>042-051-053>054-250600-
WASHINGTON METRO

CITY           SKY/WX    TMP DP  RH WIND       PRES   REMARKS
WASHINGTON NAT PTCLDY    65  63  93 NE6       30.16S
DULLES         PTCLDY    56  55  97 CALM      30.16S
ANDREWS AFB    CLEAR     58  57  96 CALM      30.15R
FT BELVOIR     CLEAR     59  58  95 CALM      30.15S
QUANTICO         N/A     68  62  81 SE9       30.15F
COLLEGE PARK*  PTCLDY    57  55  94 CALM      30.15S
LEESBURG*      PTCLDY    61  61 100 CALM      30.18S
MANASSAS*      MOCLDY    63  63 100 CALM      30.16S
GAITHERSBURG*  PTCLDY    55  52  88 CALM      30.20S

$$

MDZ006>007-011-014-250600-
BALTIMORE METRO

CITY           SKY/WX    TMP DP  RH WIND       PRES   REMARKS
BWI AIRPORT    PTCLDY    58  56  93 CALM      30.15S
MD SCIENCE CTR   N/A     65  52  62 MISG      30.16S
ANNAPOLIS      PTCLDY    64  62  93 CALM      30.14F
FORT MEADE*    PTCLDY    54  54 100 CALM      30.18S

$$

MDZ012-015-019>023-250600-
MARYLAND EASTERN SHORE

CITY           SKY/WX    TMP DP  RH WIND       PRES   REMARKS
OCEAN CITY     PTCLDY    61  58  90 CALM      30.13S
SALISBURY      MOCLDY    58  58 100 CALM      30.13F FOG
BAY BRIDGE AP* CLEAR     61  59  94 MISG      30.15S
CAMBRIDGE*     CLEAR     55  55 100 CALM      30.13F

$$

MDZ017>025-250600-
SOUTHERN MARYLAND

CITY           SKY/WX    TMP DP  RH WIND       PRES   REMARKS
PATUXENT RIVER CLEAR     64  58  80 E6        30.14S
ST INIGOES     PTCLDY    63  61  93 CALM      30.13S
LEONARDTOWN*   CLEAR     59  57  94 CALM      30.16S

$$

MDZ003>005-250600-
NORTH CENTRAL MARYLAND

CITY           SKY/WX    TMP DP  RH WIND       PRES   REMARKS
FREDERICK*     NOT AVBL
HAGERSTOWN APT CLEAR     58  44  60 N6        30.18R

$$

MDZ501>502-250600-
WESTERN MARYLAND

CITY           SKY/WX    TMP DP  RH WIND       PRES   REMARKS
OAKLAND*       CLEAR     54  48  82 E6        30.21F
CUMBERLAND*    CLEAR     59  55  88 CALM      30.22S

$$

VAZ025>031-250600-
SHENANDOAH VALLEY

CITY           SKY/WX    TMP DP  RH WIND       PRES   REMARKS
WINCHESTER*    CLOUDY    63  54  72 N3        30.17R
FRONT ROYAL*   CLOUDY    63  59  88 CALM      30.15S
LURAY*         CLOUDY    66  59  77 NE3       30.16S
NEW MARKET*    CLOUDY   N/A N/A N/A N5        30.15F
STAUNTON*      CLOUDY    67  59  76 NE3       30.18S
WAYNESBORO*    CLOUDY    68  63  84 CALM      30.17S

$$

WVZ021-048>050-054>055-250600-
EASTERN WEST VIRGINIA PANHANDLE

CITY           SKY/WX    TMP DP  RH WIND       PRES   REMARKS
MARTINSBURG    PTCLDY    57  49  74 N3        30.17R
PETERSBURG*    CLOUDY    65  59  80 CALM      30.17S

$$

VAZ036>039-050-250600-
CENTRAL FOOTHILLS

CITY           SKY/WX    TMP DP  RH WIND       PRES   REMARKS
CHARLOTTESVILL CLOUDY    70  64  81 E7        30.15S
CULPEPER*      CLOUDY    65  64  95 CALM      30.17R
ORANGE*          N/A     68  68 100 CALM      30.17R
GORDONSVILLE*  CLOUDY    68  64  88 CALM      30.15S
WARRENTON*     CLOUDY    64  59  82 N3        30.15S

$$

VAZ055>057-250600-
NORTH AND CENTRAL PIEDMONT

CITY           SKY/WX    TMP DP  RH WIND       PRES   REMARKS
FREDERICKSBRG* CLOUDY    67  64  89 CALM      30.14S
STAFFORD*      PTCLDY    62  62 100 CALM      30.18F

$$

NCZ024-NYZ072-PAZ021-071-VAZ022-071-250600-
OTHER REGIONAL OBSERVATIONS

CITY           SKY/WX    TMP DP  RH WIND       PRES   REMARKS
NEW YORK CITY  CLEAR     60  43  53 VRB6      30.17F
PHILADELPHIA   CLEAR     60  43  53 N5        30.15S
PITTSBURGH     CLEAR     57  49  74 NE5       30.19R
ROANOKE        MOCLDY    71  68  90 SE7       30.15S
RICHMOND       CLOUDY    68  63  84 NE8       30.13S
RALEIGH        PTCLDY    73  70  90 E9        30.08R

$$

ANZ530>537-250600-
MARINE OBSERVATIONS

STATION/POSITION TIME  TEMP    WIND        PRES
                       AIR SEA DIR/SP/G
                 (UTC) (F)     (DEG/KT/KT) (MB)
THOMAS PT LIGHT  0500   66 76  130/  4/  4 1022.2S
BALT KEY BRIDGE  0448   64      10/  9/ 11 1020.8F
COVE POINT       0448   65     140/  5/  8 1021.2S
LEWISETTA        0448   69 76   80/  9/ 10 1019.8F
SOLOMONS ISLAND  0448   68 76   60/  6/  8   N/A
PINEY POINT      0448           90/  4/  6   N/A

$$





USA.gov is the U.S. government's official web portal to all federal, state and local government web resources and services.